Location: Detroit
(42.3310°N, 83.0460°W)
Time: 20:47:11
(UTC-04:00)

A-11 Canister half - Pass Details

Date: 12 February 2023
Orbit: 1526 x 1682 km, 47.3° (Epoch: 29 March)

Event Time Altitude Azimuth Distance (km) Brightness Sun altitude
Rises 06:37:39 0° 274° (W) 4,681 - -10.8°
Reaches altitude 10° 06:40:44 10° 278° (W) 3,694 - -10.2°
Exits shadow 06:41:12 12° 278° (W) 3,547 10.2 -10.1°
Maximum altitude 06:49:59 65° 360° (N) 1,660 9.2 -8.5°
Drops below altitude 10° 06:59:20 10° 81° (E) 3,739 12.4 -6.8°
Sets 07:02:29 0° 85° (E) 4,740 13.3 -6.3°
